QPF
0.01 0.01 0.01 0.01 0.01 0.01 0.02 0.02 0.02 0.02 0.02 0.02 0.02 0.01 0.01 0.01 0.02 0.02 0.02 0.01 0.01 0.01 0.01 0.01 0.01 0.02 0.01 0.01 0.01 0.01 0.02 0.02 0.02 0.01 0.01 0.00 0.00 0.00 0.01 0.01 0.01 0.01 0.01
0.01 0.01 0.01 0.01 0.01 0.01 0.00 0.00 0.01 0.01 0.02 0.02 0.01 0.01 0.01 0.01 0.01 0.01 0.01 0.01 0.01 0.00 0.01 0.01 0.01 0.01 0.01 0.01 0.01 0.01 0.01 0.01 0.01 0.01 0.01 0.00 0.00 0.00 0.01 0.01 0.01 0.01 0.01
0.01 0.00 0.00 0.00 0.00 0.00 0.00 0.00 0.00 0.01 0.01 0.01 0.01 0.01 0.01 0.01 0.01 0.00 0.01 0.01 0.00 0.00 0.01 0.01 0.01 0.01 0.01 0.01 0.01 0.00 0.00 0.01 0.01 0.01 0.01 0.01 0.01 0.01 0.00 0.01 0.01 0.01 0.01
0.01 0.00 0.00 0.00 0.00 0.00 0.00 0.00 0.00 0.01 0.01 0.01 0.01 0.01 0.01 0.00 0.00 0.00 0.00 0.00 0.00 0.00 0.01 0.01 0.01 0.01 0.01 0.01 0.01 0.00 0.00 0.00 0.01 0.01 0.01 0.01 0.01 0.01 0.01 0.01 0.01 0.01 0.01
0.01 0.01 0.00 0.00 0.00 0.00 0.00 0.00 0.00 0.00 0.01 0.01 0.01 0.01 0.00 0.00 0.00 0.00 0.00 0.00 0.00 0.00 0.00 0.01 0.01 0.02 0.01 0.01 0.01 0.00 0.00 0.00 0.00 0.01 0.02 0.02 0.02 0.01 0.01 0.01 0.01 0.01 0.01
0.00 0.00 0.00 0.00 0.00 0.00 0.00 0.00 0.00 0.00 0.00 0.00 0.00 0.00 0.00 0.00 0.00 0.00 0.00 0.00 0.00 0.00 0.00 0.00 0.01 0.01 0.01 0.01 0.01 0.01 0.00 0.01 0.01 0.01 0.02 0.02 0.02 0.02 0.02 0.01 0.01 0.01 0.01
0.00 0.00 0.00 0.00 0.00 0.00 0.00 0.00 0.00 0.00 0.00 0.00 0.00 0.00 0.00 0.00 0.00 0.00 0.01 0.00 0.00 0.00 0.00 0.00 0.00 0.01 0.01 0.01 0.01 0.01 0.01 0.01 0.01 0.01 0.02 0.03 0.02 0.02 0.02 0.02 0.02 0.01 0.01
0.00 0.00 0.01 0.01 0.01 0.00 0.00 0.00 0.00 0.00 0.00 0.00 0.01 0.01 0.01 0.01 0.01 0.01 0.01 0.01 0.01 0.01 0.01 0.01 0.01 0.01 0.00 0.01 0.01 0.01 0.01 0.00 0.00 0.01 0.01 0.02 0.02 0.03 0.03 0.03 0.03 0.02 0.01
0.00 0.00 0.00 0.01 0.01 0.01 0.01 0.00 0.00 0.00 0.00 0.01 0.01 0.01 0.01 0.02 0.02 0.02 0.02 0.02 0.01 0.01 0.01 0.01 0.01 0.01 0.01 0.01 0.01 0.01 0.01 0.01 0.00 0.01 0.01 0.01 0.02 0.03 0.03 0.03 0.03 0.03 0.02
0.00 0.00 0.00 0.00 0.01 0.01 0.01 0.01 0.00 0.00 0.00 0.01 0.02 0.02 0.01 0.02 0.02 0.02 0.02 0.02 0.01 0.01 0.01 0.01 0.01 0.01 0.01 0.01 0.01 0.01 0.01 0.01 0.00 0.01 0.01 0.01 0.01 0.02 0.02 0.02 0.02 0.03 0.03
0.00 0.00 0.00 0.00 0.00 0.01 0.01 0.01 0.01 0.01 0.01 0.01 0.01 0.02 0.02 0.02 0.02 0.02 0.02 0.02 0.02 0.01 0.01 0.01 0.00 0.01 0.01 0.01 0.01 0.01 0.01 0.01 0.01 0.01 0.01 0.01 0.01 0.01 0.01 0.01 0.02 0.03 0.03
0.00 0.00 0.00 0.00 0.00 0.00 0.01 0.01 0.01 0.01 0.01 0.01 0.01 0.01 0.01 0.01 0.01 0.01 0.01 0.01 0.02 0.02 0.01 0.01 0.01 0.01 0.01 0.01 0.01 0.01 0.01 0.01 0.02 0.02 0.02 0.01 0.01 0.02 0.02 0.02 0.02 0.02 0.02
0.00 0.00 0.00 0.00 0.00 0.00 0.00 0.00 0.01 0.01 0.01 0.01 0.01 0.01 0.01 0.01 0.01 0.01 0.01 0.01 0.02 0.02 0.02 0.01 0.01 0.01 0.01 0.01 0.02 0.01 0.01 0.02 0.02 0.02 0.02 0.02 0.02 0.02 0.02 0.02 0.02 0.02 0.02
0.01 0.01 0.01 0.00 0.00 0.00 0.00 0.00 0.00 0.00 0.01 0.01 0.01 0.01 0.01 0.01 0.01 0.01 0.01 0.01 0.01 0.01 0.02 0.01 0.01 0.01 0.01 0.02 0.02 0.02 0.02 0.02 0.02 0.02 0.02 0.02 0.03 0.02 0.02 0.02 0.02 0.02 0.02
0.01 0.01 0.00 0.00 0.00 0.00 0.00 0.00 0.00 0.00 0.00 0.00 0.01 0.01 0.01 0.01 0.01 0.01 0.01 0.01 0.01 0.01 0.01 0.01 0.01 0.01 0.01 0.01 0.01 0.01 0.01 0.02 0.02 0.02 0.03 0.03 0.03 0.03 0.02 0.02 0.02 0.02 0.02
0.01 0.00 0.00 0.00 0.00 0.00 0.00 0.00 0.00 0.00 0.00 0.00 0.01 0.01 0.01 0.01 0.01 0.01 0.01 0.01 0.01 0.02 0.02 0.02 0.01 0.01 0.01 0.01 0.01 0.01 0.01 0.01 0.02 0.03 0.03 0.03 0.03 0.03 0.03 0.02 0.02 0.02 0.02
0.01 0.00 0.00 0.00 0.00 0.00 0.00 0.00 0.00 0.00 0.00 0.00 0.01 0.01 0.01 0.01 0.01 0.01 0.01 0.01 0.01 0.02 0.02 0.02 0.01 0.01 0.01 0.01 0.01 0.01 0.01 0.01 0.02 0.02 0.03 0.03 0.03 0.03 0.03 0.03 0.02 0.02 0.02
0.00 0.00 0.00 0.00 0.00 0.01 0.01 0.01 0.01 0.01 0.01 0.00 0.00 0.01 0.01 0.01 0.01 0.01 0.01 0.02 0.01 0.01 0.01 0.01 0.01 0.01 0.01 0.01 0.01 0.01 0.01 0.02 0.02 0.02 0.03 0.03 0.03 0.03 0.02 0.02 0.02 0.02 0.02
0.00 0.00 0.00 0.00 0.01 0.01 0.01 0.01 0.01 0.01 0.01 0.01 0.01 0.01 0.01 0.01 0.01 0.01 0.01 0.01 0.01 0.01 0.01 0.01 0.01 0.01 0.01 0.01 0.01 0.02 0.02 0.02 0.02 0.02 0.02 0.02 0.03 0.03 0.03 0.02 0.02 0.02 0.03
0.00 0.00 0.00 0.00 0.00 0.01 0.01 0.01 0.01 0.01 0.01 0.01 0.01 0.01 0.02 0.02 0.01 0.01 0.01 0.01 0.01 0.01 0.01 0.01 0.01 0.01 0.01 0.01 0.02 0.02 0.02 0.02 0.02 0.02 0.02 0.02 0.02 0.03 0.03 0.02 0.02 0.02 0.02
0.01 0.01 0.01 0.01 0.01 0.01 0.01 0.01 0.01 0.02 0.02 0.02 0.02 0.02 0.03 0.03 0.02 0.01 0.01 0.01 0.01 0.01 0.01 0.01 0.01 0.01 0.01 0.01 0.01 0.01 0.02 0.02 0.01 0.02 0.02 0.02 0.02 0.02 0.02 0.02 0.02 0.02 0.02
0.01 0.01 0.01 0.01 0.01 0.01 0.01 0.01 0.02 0.02 0.02 0.02 0.02 0.02 0.02 0.02 0.01 0.01 0.01 0.01 0.01 0.00 0.00 0.01 0.01 0.01 0.01 0.01 0.01 0.02 0.01 0.01 0.01 0.02 0.02 0.02 0.02 0.02 0.02 0.02 0.02 0.02 0.02
0.01 0.01 0.01 0.01 0.01 0.01 0.01 0.01 0.02 0.02 0.03 0.03 0.02 0.02 0.02 0.01 0.01 0.01 0.01 0.01 0.01 0.00 0.01 0.01 0.01 0.01 0.01 0.01 0.02 0.02 0.02 0.02 0.01 0.02 0.03 0.03 0.03 0.02 0.03 0.03 0.02 0.02 0.02
0.01 0.01 0.01 0.01 0.01 0.01 0.01 0.01 0.02 0.02 0.02 0.02 0.02 0.02 0.02 0.01 0.01 0.01 0.01 0.01 0.01 0.01 0.01 0.01 0.01 0.01 0.01 0.01 0.02 0.02 0.02 0.02 0.02 0.02 0.03 0.03 0.03 0.02 0.03 0.03 0.02 0.02 0.02
0.01 0.01 0.00 0.00 0.01 0.01 0.01 0.01 0.01 0.01 0.01 0.01 0.01 0.01 0.01 0.01 0.01 0.01 0.01 0.01 0.01 0.01 0.01 0.01 0.01 0.01 0.01 0.01 0.01 0.01 0.02 0.02 0.02 0.03 0.03 0.03 0.03 0.02 0.02 0.02 0.02 0.02 0.02
0.01 0.01 0.01 0.00 0.00 0.01 0.01 0.01 0.01 0.01 0.01 0.01 0.01 0.02 0.02 0.02 0.02 0.02 0.02 0.01 0.01 0.01 0.01 0.01 0.01 0.01 0.01 0.01 0.01 0.01 0.02 0.02 0.02 0.03 0.03 0.03 0.03 0.02 0.03 0.03 0.02 0.02 0.02
MSLP
1011.95 1012.34 1012.69 1012.99 1013.27 1013.54 1013.83 1014.16 1014.54 1014.97 1015.43 1015.90 1016.36 1016.80 1017.20 1017.56 1017.89 1018.19 1018.47 1018.76 1019.03 1019.29 1019.54 1019.75 1019.91 1020.03 1020.11 1020.16 1020.21 1020.27 1020.36 1020.51 1020.71 1020.97 1021.28 1021.63 1021.99 1022.35 1022.69 1023.01 1023.29 1023.55 1023.77
1011.87 1012.29 1012.65 1012.96 1013.23 1013.49 1013.77 1014.08 1014.44 1014.86 1015.31 1015.77 1016.24 1016.68 1017.08 1017.44 1017.77 1018.06 1018.34 1018.61 1018.87 1019.14 1019.39 1019.62 1019.81 1019.97 1020.09 1020.19 1020.26 1020.34 1020.43 1020.55 1020.72 1020.93 1021.18 1021.46 1021.76 1022.07 1022.38 1022.68 1022.97 1023.25 1023.51
1011.74 1012.19 1012.57 1012.89 1013.17 1013.43 1013.71 1014.01 1014.36 1014.76 1015.20 1015.66 1016.11 1016.54 1016.94 1017.28 1017.59 1017.87 1018.13 1018.38 1018.64 1018.90 1019.16 1019.41 1019.64 1019.84 1020.01 1020.15 1020.27 1020.36 1020.47 1020.57 1020.70 1020.86 1021.04 1021.26 1021.49 1021.74 1022.01 1022.28 1022.56 1022.85 1023.13
1011.58 1012.07 1012.48 1012.83 1013.13 1013.41 1013.69 1014.00 1014.35 1014.74 1015.16 1015.60 1016.04 1016.45 1016.82 1017.14 1017.42 1017.67 1017.90 1018.13 1018.36 1018.61 1018.87 1019.14 1019.39 1019.63 1019.84 1020.02 1020.16 1020.29 1020.39 1020.49 1020.59 1020.70 1020.83 1020.97 1021.14 1021.33 1021.55 1021.79 1022.05 1022.33 1022.62
1011.40 1011.94 1012.40 1012.79 1013.12 1013.43 1013.73 1014.06 1014.41 1014.80 1015.21 1015.63 1016.04 1016.43 1016.76 1017.05 1017.29 1017.50 1017.70 1017.89 1018.10 1018.32 1018.57 1018.83 1019.09 1019.34 1019.57 1019.77 1019.93 1020.06 1020.16 1020.25 1020.32 1020.39 1020.47 1020.56 1020.68 1020.82 1021.00 1021.20 1021.43 1021.70 1021.99
1011.23 1011.83 1012.34 1012.78 1013.16 1013.51 1013.85 1014.19 1014.56 1014.95 1015.36 1015.76 1016.15 1016.49 1016.79 1017.04 1017.24 1017.40 1017.55 1017.71 1017.88 1018.07 1018.28 1018.51 1018.75 1018.99 1019.21 1019.40 1019.55 1019.67 1019.76 1019.82 1019.87 1019.91 1019.96 1020.02 1020.11 1020.22 1020.36 1020.54 1020.75 1021.00 1021.28
1011.10 1011.75 1012.32 1012.81 1013.25 1013.65 1014.02 1014.40 1014.79 1015.19 1015.59 1015.98 1016.33 1016.64 1016.90 1017.10 1017.26 1017.38 1017.48 1017.59 1017.71 1017.86 1018.03 1018.22 1018.42 1018.61 1018.79 1018.94 1019.06 1019.14 1019.20 1019.24 1019.27 1019.30 1019.33 1019.38 1019.45 1019.55 1019.68 1019.85 1020.05 1020.28 1020.54
1011.04 1011.73 1012.36 1012.90 1013.39 1013.83 1014.26 1014.67 1015.08 1015.48 1015.87 1016.24 1016.57 1016.84 1017.06 1017.22 1017.33 1017.42 1017.48 1017.55 1017.62 1017.72 1017.83 1017.96 1018.10 1018.22 1018.34 1018.43 1018.49 1018.53 1018.55 1018.57 1018.58 1018.59 1018.63 1018.68 1018.77 1018.88 1019.02 1019.18 1019.38 1019.60 1019.84
1011.08 1011.82 1012.48 1013.07 1013.59 1014.08 1014.53 1014.97 1015.39 1015.79 1016.17 1016.52 1016.81 1017.06 1017.24 1017.36 1017.44 1017.49 1017.52 1017.55 1017.59 1017.63 1017.69 1017.75 1017.82 1017.87 1017.91 1017.92 1017.92 1017.90 1017.88 1017.86 1017.86 1017.88 1017.93 1018.01 1018.11 1018.25 1018.41 1018.59 1018.79 1019.01 1019.24
1011.26 1012.02 1012.70 1013.31 1013.87 1014.37 1014.84 1015.29 1015.71 1016.10 1016.46 1016.78 1017.04 1017.25 1017.40 1017.49 1017.55 1017.57 1017.58 1017.58 1017.58 1017.58 1017.59 1017.59 1017.58 1017.56 1017.51 1017.46 1017.38 1017.31 1017.25 1017.21 1017.19 1017.22 1017.29 1017.39 1017.54 1017.71 1017.90 1018.10 1018.31 1018.53 1018.76
1011.59 1012.36 1013.04 1013.66 1014.21 1014.72 1015.18 1015.62 1016.02 1016.39 1016.72 1017.00 1017.23 1017.40 1017.52 1017.59 1017.62 1017.62 1017.61 1017.59 1017.56 1017.53 1017.49 1017.44 1017.37 1017.28 1017.17 1017.04 1016.91 1016.79 1016.69 1016.62 1016.60 1016.64 1016.73 1016.87 1017.04 1017.25 1017.47 1017.70 1017.93 1018.15 1018.38
1012.08 1012.83 1013.50 1014.09 1014.63 1015.10 1015.54 1015.95 1016.31 1016.64 1016.93 1017.17 1017.35 1017.49 1017.57 1017.61 1017.63 1017.61 1017.59 1017.55 1017.51 1017.45 1017.38 1017.28 1017.16 1017.02 1016.85 1016.67 1016.49 1016.32 1016.19 1016.11 1016.09 1016.13 1016.24 1016.40 1016.61 1016.84 1017.10 1017.35 1017.60 1017.83 1018.06
1012.70 1013.41 1014.04 1014.59 1015.08 1015.51 1015.91 1016.26 1016.58 1016.85 1017.09 1017.27 1017.41 1017.50 1017.55 1017.57 1017.56 1017.53 1017.49 1017.44 1017.38 1017.30 1017.20 1017.07 1016.91 1016.73 1016.51 1016.29 1016.07 1015.88 1015.72 1015.63 1015.60 1015.65 1015.77 1015.95 1016.18 1016.44 1016.71 1016.99 1017.26 1017.51 1017.75
1013.39 1014.04 1014.61 1015.11 1015.54 1015.92 1016.25 1016.54 1016.79 1017.01 1017.18 1017.31 1017.40 1017.45 1017.47 1017.46 1017.42 1017.37 1017.31 1017.24 1017.16 1017.05 1016.93 1016.77 1016.58 1016.35 1016.11 1015.86 1015.61 1015.39 1015.22 1015.12 1015.09 1015.13 1015.26 1015.45 1015.69 1015.97 1016.26 1016.56 1016.85 1017.12 1017.38
1014.07 1014.66 1015.17 1015.60 1015.96 1016.27 1016.54 1016.76 1016.95 1017.10 1017.22 1017.29 1017.33 1017.34 1017.32 1017.27 1017.21 1017.14 1017.05 1016.95 1016.83 1016.69 1016.53 1016.34 1016.11 1015.86 1015.59 1015.31 1015.05 1014.81 1014.63 1014.52 1014.48 1014.52 1014.65 1014.84 1015.09 1015.38 1015.69 1016.01 1016.33 1016.63 1016.93
1014.68 1015.20 1015.64 1016.00 1016.30 1016.55 1016.75 1016.91 1017.04 1017.13 1017.19 1017.22 1017.22 1017.18 1017.12 1017.04 1016.94 1016.83 1016.70 1016.56 1016.40 1016.22 1016.01 1015.77 1015.51 1015.22 1014.92 1014.63 1014.35 1014.10 1013.91 1013.79 1013.74 1013.78 1013.91 1014.10 1014.36 1014.66 1014.99 1015.34 1015.69 1016.03 1016.37
1015.17 1015.62 1015.99 1016.30 1016.54 1016.73 1016.88 1016.99 1017.07 1017.11 1017.13 1017.11 1017.07 1017.00 1016.90 1016.78 1016.64 1016.48 1016.30 1016.10 1015.88 1015.64 1015.38 1015.09 1014.78 1014.46 1014.13 1013.80 1013.51 1013.25 1013.05 1012.92 1012.88 1012.91 1013.04 1013.24 1013.51 1013.83 1014.18 1014.56 1014.95 1015.35 1015.74
1015.54 1015.92 1016.23 1016.49 1016.68 1016.83 1016.94 1017.01 1017.05 1017.06 1017.04 1016.99 1016.92 1016.81 1016.67 1016.51 1016.32 1016.11 1015.87 1015.61 1015.32 1015.01 1014.68 1014.33 1013.96 1013.59 1013.23 1012.88 1012.56 1012.29 1012.09 1011.96 1011.91 1011.95 1012.08 1012.29 1012.57 1012.91 1013.30 1013.72 1014.16 1014.62 1015.08
1015.78 1016.11 1016.38 1016.59 1016.76 1016.88 1016.96 1017.01 1017.02 1017.01 1016.96 1016.89 1016.78 1016.64 1016.47 1016.26 1016.02 1015.75 1015.45 1015.11 1014.75 1014.36 1013.95 1013.53 1013.10 1012.68 1012.27 1011.90 1011.56 1011.29 1011.08 1010.95 1010.90 1010.95 1011.08 1011.31 1011.61 1011.98 1012.41 1012.88 1013.38 1013.90 1014.43
1015.95 1016.23 1016.47 1016.66 1016.81 1016.92 1016.98 1017.01 1017.00 1016.97 1016.90 1016.80 1016.67 1016.50 1016.29 1016.05 1015.75 1015.42 1015.05 1014.64 1014.19 1013.72 1013.24 1012.75 1012.26 1011.79 1011.34 1010.94 1010.58 1010.29 1010.08 1009.95 1009.91 1009.97 1010.12 1010.36 1010.69 1011.09 1011.56 1012.08 1012.64 1013.22 1013.83
1016.07 1016.32 1016.55 1016.73 1016.87 1016.96 1017.01 1017.03 1017.01 1016.96 1016.87 1016.75 1016.59 1016.40 1016.15 1015.86 1015.52 1015.13 1014.69 1014.21 1013.69 1013.15 1012.59 1012.03 1011.49 1010.97 1010.48 1010.05 1009.68 1009.39 1009.17 1009.05 1009.02 1009.09 1009.25 1009.51 1009.87 1010.30 1010.80 1011.37 1011.98 1012.62 1013.29
1016.19 1016.43 1016.63 1016.81 1016.94 1017.02 1017.06 1017.07 1017.03 1016.96 1016.86 1016.72 1016.53 1016.31 1016.03 1015.70 1015.32 1014.88 1014.38 1013.84 1013.26 1012.65 1012.03 1011.42 1010.83 1010.27 1009.75 1009.31 1008.93 1008.63 1008.42 1008.30 1008.29 1008.37 1008.55 1008.83 1009.20 1009.65 1010.19 1010.79 1011.43 1012.12 1012.83
1016.32 1016.54 1016.73 1016.89 1017.00 1017.07 1017.10 1017.09 1017.03 1016.95 1016.82 1016.66 1016.46 1016.21 1015.91 1015.55 1015.13 1014.66 1014.12 1013.53 1012.91 1012.25 1011.59 1010.94 1010.31 1009.73 1009.20 1008.75 1008.37 1008.07 1007.87 1007.77 1007.77 1007.86 1008.06 1008.35 1008.73 1009.21 1009.75 1010.37 1011.04 1011.75 1012.49
1016.43 1016.63 1016.80 1016.94 1017.03 1017.08 1017.09 1017.05 1016.98 1016.87 1016.73 1016.55 1016.33 1016.07 1015.76 1015.39 1014.95 1014.45 1013.90 1013.29 1012.63 1011.96 1011.28 1010.61 1009.97 1009.38 1008.85 1008.40 1008.03 1007.76 1007.58 1007.49 1007.50 1007.61 1007.82 1008.12 1008.51 1008.99 1009.53 1010.15 1010.82 1011.53 1012.27
1016.50 1016.67 1016.81 1016.91 1016.98 1016.99 1016.97 1016.91 1016.82 1016.70 1016.54 1016.36 1016.14 1015.88 1015.57 1015.20 1014.76 1014.27 1013.71 1013.10 1012.45 1011.78 1011.10 1010.44 1009.81 1009.23 1008.73 1008.30 1007.95 1007.71 1007.55 1007.49 1007.52 1007.65 1007.87 1008.17 1008.56 1009.02 1009.56 1010.15 1010.80 1011.49 1012.21
1016.48 1016.61 1016.71 1016.77 1016.80 1016.78 1016.73 1016.65 1016.55 1016.42 1016.27 1016.09 1015.88 1015.63 1015.34 1014.99 1014.58 1014.10 1013.57 1012.98 1012.36 1011.71 1011.07 1010.44 1009.84 1009.30 1008.83 1008.44 1008.13 1007.92 1007.80 1007.77 1007.83 1007.97 1008.20 1008.50 1008.88 1009.33 1009.84 1010.40 1011.01 1011.66 1012.34
Thickness
5556 5554 5552 5550 5548 5546 5544 5542 5541 5539 5537 5536 5534 5534 5533 5533 5532 5531 5531 5530 5529 5528 5527 5525 5524 5522 5521 5520 5518 5517 5516 5516 5518 5519 5515 5512 5510 5509 5508 5508 5507 5507 5507
5548 5545 5543 5541 5539 5537 5535 5533 5532 5530 5528 5526 5525 5524 5523 5522 5522 5521 5521 5519 5519 5518 5517 5514 5512 5510 5509 5507 5505 5504 5503 5502 5502 5504 5503 5500 5498 5496 5495 5494 5493 5493 5492
5538 5536 5534 5532 5530 5528 5526 5524 5522 5520 5518 5516 5515 5514 5513 5512 5511 5510 5509 5508 5508 5507 5505 5503 5501 5498 5497 5495 5493 5492 5490 5489 5487 5487 5488 5486 5484 5482 5481 5481 5479 5478 5477
5529 5527 5525 5523 5521 5519 5516 5513 5512 5510 5508 5507 5505 5504 5502 5501 5500 5498 5497 5496 5495 5494 5492 5490 5488 5486 5485 5483 5481 5479 5477 5476 5474 5473 5473 5472 5471 5468 5466 5467 5467 5466 5464
5519 5517 5515 5512 5510 5507 5505 5503 5501 5499 5497 5495 5493 5492 5491 5489 5488 5487 5485 5484 5483 5482 5480 5478 5476 5473 5472 5470 5468 5467 5464 5463 5462 5461 5460 5459 5458 5456 5455 5453 5453 5453 5452
5508 5506 5503 5501 5498 5496 5494 5492 5489 5487 5486 5484 5482 5480 5479 5477 5475 5473 5471 5471 5469 5468 5467 5465 5463 5461 5459 5456 5454 5453 5451 5450 5450 5448 5448 5448 5448 5445 5442 5440 5439 5439 5440
5496 5494 5491 5489 5487 5485 5482 5480 5478 5476 5474 5472 5470 5469 5467 5466 5462 5460 5458 5457 5457 5456 5454 5453 5451 5450 5446 5445 5443 5441 5439 5437 5435 5435 5436 5437 5435 5433 5430 5429 5427 5426 5427
5484 5482 5479 5476 5474 5472 5470 5469 5467 5465 5463 5461 5459 5457 5455 5454 5450 5447 5445 5444 5444 5444 5442 5440 5439 5438 5435 5432 5431 5430 5429 5428 5425 5423 5423 5424 5422 5420 5417 5416 5414 5413 5413
5472 5470 5467 5465 5463 5461 5459 5457 5456 5454 5452 5450 5448 5446 5444 5443 5439 5435 5432 5432 5432 5432 5430 5428 5426 5425 5423 5419 5417 5418 5418 5417 5414 5412 5412 5411 5409 5407 5404 5402 5401 5400 5402
5461 5458 5456 5453 5452 5450 5448 5446 5443 5441 5440 5437 5436 5434 5433 5431 5428 5424 5421 5420 5421 5420 5419 5417 5414 5412 5410 5407 5405 5405 5406 5406 5404 5403 5402 5401 5399 5397 5394 5392 5391 5390 5390
5447 5445 5443 5441 5439 5437 5435 5433 5430 5428 5427 5425 5424 5422 5420 5418 5416 5412 5410 5408 5408 5407 5407 5406 5404 5400 5397 5396 5394 5394 5394 5393 5392 5391 5391 5390 5388 5386 5384 5382 5380 5378 5378
5434 5432 5431 5428 5426 5424 5422 5420 5417 5415 5414 5413 5411 5411 5409 5407 5404 5402 5399 5397 5395 5395 5395 5394 5392 5389 5386 5385 5383 5383 5382 5380 5380 5380 5379 5379 5377 5376 5373 5371 5369 5367 5367
5420 5419 5418 5415 5413 5411 5409 5407 5405 5403 5402 5401 5400 5399 5399 5396 5394 5391 5389 5387 5385 5383 5384 5382 5380 5378 5376 5375 5374 5372 5370 5370 5369 5368 5369 5368 5367 5365 5362 5360 5359 5357 5356
5407 5406 5404 5402 5400 5398 5396 5394 5393 5392 5391 5389 5389 5388 5387 5385 5383 5381 5379 5377 5375 5373 5372 5371 5369 5367 5365 5364 5363 5362 5361 5360 5359 5359 5359 5357 5355 5353 5351 5350 5349 5347 5346
5394 5392 5390 5388 5387 5386 5384 5383 5382 5381 5379 5377 5377 5375 5374 5375 5374 5371 5369 5368 5366 5364 5361 5359 5358 5357 5356 5355 5354 5353 5351 5350 5349 5348 5347 5346 5344 5342 5342 5340 5339 5338 5338
5380 5380 5378 5376 5374 5373 5371 5371 5369 5367 5365 5364 5363 5362 5362 5362 5361 5360 5358 5357 5355 5353 5350 5351 5351 5349 5348 5347 5345 5344 5342 5341 5340 5338 5337 5336 5334 5333 5332 5331 5329 5329 5329
5367 5366 5365 5363 5362 5360 5359 5358 5359 5358 5355 5353 5353 5352 5351 5351 5351 5350 5349 5347 5346 5343 5342 5343 5342 5341 5339 5338 5336 5335 5334 5332 5330 5329 5327 5326 5325 5324 5323 5323 5322 5321 5322
5354 5353 5351 5351 5350 5348 5347 5346 5346 5346 5346 5346 5345 5343 5342 5342 5341 5340 5339 5337 5337 5336 5335 5334 5333 5332 5330 5329 5328 5327 5325 5324 5322 5321 5320 5319 5317 5316 5316 5316 5315 5314 5315
5342 5342 5340 5339 5338 5337 5336 5335 5335 5334 5335 5335 5335 5335 5333 5332 5331 5331 5329 5329 5329 5328 5326 5326 5324 5323 5322 5321 5320 5319 5318 5317 5316 5314 5313 5312 5311 5310 5309 5309 5308 5308 5307
5331 5329 5328 5328 5327 5326 5326 5325 5325 5325 5325 5325 5325 5325 5324 5322 5322 5322 5321 5320 5320 5319 5318 5317 5317 5316 5315 5314 5313 5312 5311 5310 5309 5308 5307 5306 5305 5304 5303 5302 5302 5301 5301
5320 5319 5317 5317 5317 5316 5316 5315 5315 5315 5315 5315 5316 5315 5314 5314 5314 5314 5313 5312 5312 5312 5311 5310 5310 5309 5308 5307 5306 5306 5305 5304 5303 5302 5301 5300 5299 5298 5297 5296 5296 5295 5294
5309 5309 5308 5308 5307 5306 5306 5306 5306 5306 5306 5306 5307 5307 5306 5306 5306 5306 5306 5305 5305 5304 5304 5303 5303 5303 5302 5301 5301 5300 5300 5299 5298 5297 5296 5294 5293 5292 5291 5291 5290 5289 5289
5299 5299 5299 5299 5298 5298 5298 5298 5298 5298 5299 5299 5299 5299 5299 5299 5299 5299 5299 5298 5298 5297 5297 5297 5297 5297 5297 5296 5295 5295 5294 5294 5293 5291 5290 5289 5288 5288 5287 5286 5286 5285 5284
5290 5290 5290 5291 5291 5291 5291 5291 5291 5292 5292 5292 5292 5292 5293 5293 5293 5292 5292 5292 5292 5292 5292 5292 5292 5292 5292 5291 5291 5290 5290 5289 5287 5286 5285 5285 5284 5284 5283 5282 5282 5281 5280
5282 5282 5283 5283 5283 5284 5284 5285 5285 5285 5285 5286 5286 5286 5287 5287 5287 5287 5287 5287 5287 5287 5287 5287 5288 5288 5288 5287 5287 5286 5285 5284 5283 5282 5281 5281 5281 5280 5280 5278 5278 5277 5276
5274 5274 5275 5275 5276 5277 5277 5278 5278 5279 5279 5280 5280 5280 5281 5281 5281 5281 5282 5282 5282 5282 5283 5283 5284 5284 5284 5283 5283 5282 5281 5281 5280 5279 5278 5278 5278 5278 5276 5275 5274 5273 5273